Precipitable_Water
1.26 1.28 1.29 1.29 1.31 1.34 1.37 1.39 1.43 1.44 1.48 1.54 1.52 1.52 1.51 1.55 1.58 1.61 1.65 1.68 1.67 1.69 1.71 1.70 1.69 1.69 1.71 1.70 1.69 1.64 1.66 1.63 1.67 1.68 1.60 1.60 1.60 1.61 1.62 1.60 1.60 1.56
1.21 1.24 1.28 1.30 1.30 1.32 1.34 1.39 1.41 1.41 1.45 1.49 1.55 1.56 1.53 1.51 1.51 1.51 1.54 1.59 1.62 1.63 1.69 1.73 1.72 1.71 1.70 1.69 1.68 1.66 1.64 1.64 1.60 1.70 1.64 1.62 1.62 1.62 1.59 1.61 1.62 1.67
1.18 1.19 1.20 1.20 1.22 1.25 1.27 1.34 1.38 1.39 1.38 1.44 1.49 1.52 1.53 1.49 1.49 1.46 1.48 1.49 1.50 1.55 1.59 1.64 1.71 1.71 1.72 1.70 1.71 1.66 1.64 1.62 1.59 1.69 1.64 1.61 1.65 1.61 1.61 1.62 1.61 1.60
1.16 1.14 1.15 1.16 1.19 1.23 1.27 1.28 1.32 1.34 1.35 1.33 1.37 1.46 1.47 1.48 1.44 1.47 1.43 1.43 1.42 1.45 1.51 1.54 1.58 1.64 1.67 1.69 1.69 1.69 1.70 1.64 1.64 1.70 1.64 1.66 1.65 1.67 1.66 1.62 1.61 1.63
1.15 1.11 1.12 1.14 1.17 1.21 1.27 1.23 1.24 1.29 1.26 1.28 1.33 1.38 1.41 1.43 1.43 1.41 1.43 1.42 1.38 1.37 1.42 1.47 1.51 1.54 1.59 1.62 1.65 1.62 1.67 1.65 1.65 1.61 1.58 1.57 1.62 1.63 1.66 1.65 1.63 1.57
1.20 1.15 1.11 1.10 1.14 1.16 1.18 1.19 1.19 1.22 1.25 1.23 1.25 1.31 1.33 1.38 1.37 1.37 1.40 1.40 1.39 1.33 1.37 1.41 1.44 1.46 1.50 1.52 1.55 1.55 1.58 1.58 1.67 1.60 1.54 1.52 1.58 1.67 1.66 1.66 1.60 1.55
1.21 1.17 1.09 1.08 1.09 1.13 1.14 1.17 1.19 1.18 1.19 1.22 1.27 1.24 1.27 1.30 1.31 1.31 1.35 1.38 1.38 1.39 1.38 1.41 1.43 1.43 1.45 1.48 1.48 1.48 1.50 1.53 1.59 1.61 1.55 1.55 1.54 1.58 1.64 1.61 1.56 1.55
1.29 1.26 1.17 1.10 1.04 1.08 1.10 1.12 1.14 1.15 1.16 1.19 1.17 1.23 1.24 1.23 1.26 1.28 1.30 1.33 1.33 1.35 1.36 1.39 1.43 1.42 1.44 1.44 1.44 1.42 1.45 1.49 1.46 1.45 1.47 1.49 1.50 1.50 1.55 1.57 1.56 1.50
1.33 1.32 1.28 1.17 1.06 1.03 1.04 1.06 1.09 1.12 1.16 1.14 1.12 1.16 1.22 1.19 1.19 1.20 1.25 1.29 1.30 1.32 1.34 1.33 1.36 1.38 1.39 1.39 1.40 1.41 1.41 1.45 1.49 1.48 1.44 1.42 1.40 1.41 1.46 1.52 1.50 1.47
1.34 1.33 1.30 1.25 1.14 1.08 1.01 1.02 1.07 1.10 1.13 1.10 1.11 1.10 1.12 1.17 1.14 1.16 1.18 1.21 1.23 1.25 1.28 1.29 1.30 1.31 1.33 1.32 1.32 1.31 1.29 1.28 1.30 1.35 1.40 1.42 1.41 1.42 1.46 1.45 1.43 1.43
1.38 1.36 1.30 1.26 1.20 1.15 1.07 1.04 1.04 1.07 1.11 1.07 1.07 1.04 1.05 1.09 1.13 1.11 1.11 1.14 1.13 1.15 1.18 1.21 1.24 1.28 1.26 1.23 1.24 1.27 1.25 1.22 1.23 1.25 1.25 1.26 1.32 1.38 1.40 1.41 1.42 1.39
1.44 1.40 1.33 1.28 1.24 1.19 1.13 1.09 1.05 1.02 1.05 1.07 1.03 1.00 0.99 1.00 1.06 1.08 1.05 1.05 1.07 1.09 1.13 1.16 1.20 1.21 1.19 1.14 1.13 1.17 1.20 1.20 1.21 1.21 1.22 1.22 1.23 1.25 1.28 1.34 1.35 1.35
1.48 1.43 1.39 1.34 1.31 1.25 1.21 1.17 1.12 1.04 0.98 0.99 1.02 0.98 0.96 0.94 0.97 1.02 1.04 1.02 1.03 1.03 1.05 1.10 1.14 1.15 1.13 1.10 1.06 1.06 1.10 1.14 1.14 1.15 1.17 1.18 1.18 1.16 1.19 1.25 1.31 1.33
1.53 1.51 1.48 1.43 1.40 1.37 1.31 1.25 1.20 1.15 1.06 0.99 0.99 0.96 0.93 0.92 0.93 0.95 1.00 0.99 0.99 0.99 1.00 1.04 1.08 1.08 1.09 1.07 1.05 1.02 1.00 1.02 1.05 1.04 1.07 1.12 1.13 1.13 1.11 1.12 1.15 1.21
1.58 1.56 1.56 1.53 1.49 1.46 1.40 1.33 1.27 1.24 1.20 1.14 1.05 0.97 0.93 0.90 0.92 0.93 0.95 0.95 0.95 0.95 0.95 0.97 0.99 1.02 1.02 1.02 0.99 0.97 0.97 0.97 1.00 1.03 1.01 0.99 1.01 1.04 1.08 1.09 1.07 1.06
1.65 1.61 1.57 1.56 1.54 1.49 1.45 1.41 1.36 1.32 1.28 1.24 1.18 1.12 1.04 0.97 0.91 0.90 0.89 0.90 0.91 0.92 0.91 0.92 0.93 0.96 0.96 0.92 0.93 0.94 0.95 0.93 0.97 1.01 1.00 0.99 1.00 1.00 1.00 1.01 1.02 1.05
1.67 1.64 1.62 1.58 1.56 1.55 1.53 1.49 1.44 1.41 1.36 1.32 1.28 1.24 1.19 1.15 1.07 0.97 0.89 0.86 0.88 0.91 0.90 0.88 0.87 0.89 0.89 0.86 0.84 0.86 0.91 0.97 0.95 0.97 1.00 0.99 0.96 0.94 0.92 0.92 0.95 0.99
1.72 1.67 1.62 1.60 1.62 1.59 1.57 1.55 1.53 1.49 1.43 1.40 1.35 1.32 1.30 1.27 1.20 1.12 1.05 0.98 0.93 0.90 0.88 0.88 0.87 0.86 0.86 0.83 0.81 0.81 0.82 0.86 0.94 0.97 0.99 1.00 1.00 0.96 0.95 0.94 0.93 0.92
1.82 1.76 1.68 1.61 1.61 1.62 1.64 1.63 1.59 1.53 1.49 1.44 1.39 1.39 1.39 1.34 1.28 1.23 1.18 1.14 1.08 1.01 0.94 0.90 0.87 0.87 0.86 0.82 0.80 0.79 0.79 0.81 0.82 0.86 0.93 0.96 0.98 0.99 0.98 0.96 0.93 0.90
1.90 1.84 1.76 1.70 1.66 1.65 1.65 1.64 1.62 1.56 1.52 1.52 1.51 1.49 1.45 1.39 1.35 1.30 1.27 1.23 1.18 1.12 1.07 1.03 1.00 0.97 0.91 0.85 0.81 0.78 0.78 0.80 0.80 0.81 0.83 0.86 0.89 0.92 0.94 0.95 0.96 0.92
1.92 1.89 1.81 1.75 1.72 1.69 1.66 1.64 1.63 1.60 1.58 1.56 1.53 1.51 1.47 1.41 1.37 1.35 1.33 1.30 1.26 1.23 1.18 1.12 1.09 1.07 1.02 0.96 0.90 0.86 0.84 0.83 0.83 0.83 0.82 0.83 0.84 0.86 0.87 0.88 0.92 0.96
1.98 1.90 1.86 1.82 1.75 1.71 1.65 1.60 1.59 1.58 1.55 1.57 1.55 1.53 1.53 1.51 1.49 1.46 1.40 1.35 1.33 1.30 1.25 1.19 1.17 1.14 1.09 1.04 1.00 0.96 0.95 0.93 0.91 0.88 0.86 0.85 0.85 0.85 0.86 0.91 0.93 0.94
2.13 2.00 1.92 1.88 1.83 1.74 1.66 1.60 1.57 1.56 1.55 1.58 1.54 1.51 1.48 1.48 1.47 1.48 1.48 1.43 1.39 1.37 1.32 1.27 1.24 1.23 1.18 1.13 1.10 1.09 1.08 1.05 1.01 0.97 0.94 0.91 0.89 0.90 0.92 0.93 0.96 0.97
2.07 2.12 2.05 1.97 1.92 1.81 1.72 1.68 1.65 1.63 1.58 1.62 1.54 1.49 1.46 1.45 1.48 1.50 1.53 1.51 1.46 1.41 1.39 1.33 1.30 1.32 1.29 1.25 1.22 1.20 1.19 1.16 1.14 1.09 1.03 1.00 0.99 1.00 1.00 0.99 0.98 0.96
2.06 2.07 2.13 2.11 2.02 1.91 1.84 1.76 1.71 1.66 1.68 1.69 1.64 1.59 1.52 1.51 1.50 1.48 1.50 1.54 1.53 1.49 1.47 1.41 1.38 1.39 1.39 1.34 1.31 1.28 1.27 1.27 1.24 1.20 1.12 1.09 1.06 1.05 1.07 1.06 1.04 1.03
2.06 2.07 2.09 2.14 2.14 2.06 1.98 1.90 1.85 1.79 1.76 1.74 1.72 1.69 1.62 1.57 1.53 1.50 1.47 1.49 1.54 1.54 1.52 1.48 1.42 1.41 1.44 1.39 1.37 1.35 1.34 1.34 1.33 1.25 1.16 1.12 1.12 1.09 1.07 1.09 1.09 1.08
Wind_Speed
19 18 18 17 17 16 15 14 13 13 12 12 11 10 10 10 9 9 8 8 8 8 7 7 7 7 6 6 6 6 6 6 6 7 7 7 7 7 7 7 6 6
20 19 19 18 18 17 16 15 15 14 13 12 12 11 10 10 10 9 9 9 8 8 8 8 7 7 7 6 6 6 6 6 6 6 7 7 7 7 7 7 7 7
21 20 20 19 19 18 17 16 16 15 14 13 13 12 11 11 10 10 10 9 9 8 8 8 8 7 7 7 6 6 6 6 6 6 7 7 7 7 7 7 7 7
22 21 21 20 20 19 18 18 17 16 15 14 14 13 12 11 11 10 10 10 10 9 9 8 8 8 8 7 7 6 6 6 7 7 6 7 7 7 7 7 8 8
22 22 22 21 21 20 19 19 18 17 16 16 15 14 13 13 12 11 11 10 10 10 9 9 9 8 8 8 7 7 7 7 7 7 7 7 7 7 7 7 8 8
22 22 22 22 22 21 21 20 19 18 17 17 16 15 15 14 13 12 12 11 11 11 10 10 9 9 9 8 8 8 7 7 7 7 7 7 7 7 7 8 8 8
23 23 22 22 22 22 22 21 20 19 18 18 17 17 16 15 14 14 13 12 12 11 11 11 10 10 9 9 9 9 8 8 8 7 7 7 8 8 8 8 8 8
24 23 23 23 23 23 23 22 21 20 20 19 18 18 17 16 16 15 14 14 13 12 12 11 11 11 10 10 10 9 9 9 8 8 8 8 8 8 8 8 8 9
25 24 24 23 23 23 24 23 23 22 21 21 20 19 18 18 17 16 15 15 14 13 13 12 12 11 11 11 10 10 10 10 9 9 9 9 9 9 9 9 9 9
25 25 25 24 24 24 24 24 24 23 22 22 21 20 19 19 18 17 17 16 15 15 14 13 13 13 12 12 11 11 11 11 11 10 10 10 10 9 9 9 9 9
26 26 26 26 25 25 24 24 24 24 23 23 22 22 21 20 19 19 18 17 17 16 16 15 14 14 14 13 13 12 12 11 11 11 11 10 10 10 10 10 10 10
27 27 27 27 26 26 25 25 25 24 24 24 23 23 22 21 20 20 19 19 18 18 17 17 16 16 15 15 14 14 13 12 12 12 12 12 11 11 11 11 11 11
28 27 27 27 27 27 26 26 25 25 25 24 24 24 23 23 22 21 21 20 20 19 19 18 17 17 17 16 16 15 15 14 14 13 13 13 13 12 12 12 12 12
28 28 28 28 28 27 27 27 26 26 26 25 25 25 24 24 23 23 22 21 21 21 20 20 19 19 18 18 17 17 16 16 15 15 15 14 14 14 13 13 13 13
29 28 28 28 28 28 28 28 28 27 27 26 26 25 25 25 25 24 23 23 23 22 22 21 21 20 20 20 19 18 18 17 17 17 16 16 16 15 15 15 14 14
30 29 29 29 29 29 28 28 28 28 28 27 27 27 26 26 25 25 25 24 24 24 23 23 22 22 22 22 21 20 19 19 18 18 18 18 17 17 17 16 16 16
30 30 30 30 30 30 29 29 29 29 29 28 28 28 27 27 27 26 26 25 25 25 25 24 24 24 23 23 23 22 21 20 20 20 19 19 19 19 18 18 18 18
31 31 31 31 31 31 30 30 30 30 29 29 29 29 28 28 28 28 27 27 26 26 26 26 25 25 25 25 25 24 24 23 22 21 21 21 20 20 20 20 19 19
31 31 32 32 32 32 31 31 31 31 31 30 30 30 29 29 29 29 28 28 28 27 27 27 27 27 26 26 26 26 26 25 24 24 23 22 22 22 22 21 21 21
31 31 32 33 33 33 32 32 32 32 32 31 31 31 31 30 30 30 29 29 29 28 28 28 28 27 27 27 27 27 27 27 26 26 25 25 24 24 23 23 23 22
31 32 32 33 33 34 34 34 34 33 33 32 32 32 31 31 31 30 30 30 29 29 29 29 29 29 28 28 28 28 28 28 28 27 27 26 26 25 25 25 24 24
31 32 33 33 34 34 35 34 34 34 33 33 33 33 32 32 31 31 31 31 30 30 30 30 29 29 29 29 29 29 29 28 28 28 28 28 27 27 26 26 25 25
30 32 33 34 34 35 35 35 35 34 34 34 34 34 33 33 32 32 31 31 31 31 31 30 30 30 30 30 30 29 29 29 29 28 28 28 28 28 28 27 27 27
31 31 32 34 34 34 35 35 35 35 35 34 34 34 34 34 33 32 32 32 32 32 31 31 31 31 30 30 30 30 29 29 29 28 28 28 29 29 29 29 29 29
32 32 32 33 34 35 35 35 36 36 36 35 35 35 34 34 34 33 33 32 32 32 32 32 32 31 31 31 31 31 30 30 29 29 29 29 29 29 30 30 30 30
31 33 33 33 33 35 36 36 36 36 36 36 36 35 35 35 34 34 33 33 32 32 32 32 32 32 32 32 32 32 32 31 30 30 29 29 29 30 30 30 30 31
Wind_Direction
205 204 204 204 204 204 203 203 202 201 199 197 195 195 194 192 191 191 190 189 189 189 188 186 185 185 184 183 183 183 183 184 186 186 187 189 189 190 189 188 186 185
206 206 206 206 206 205 205 205 205 204 203 202 200 199 199 196 195 196 196 195 194 194 194 193 192 191 190 189 188 189 190 191 193 193 194 196 197 197 197 196 195 194
208 207 207 207 208 207 207 208 208 207 206 206 205 204 203 201 200 200 200 200 201 200 199 200 199 197 197 196 194 195 197 197 199 200 200 202 204 204 202 201 201 199
210 209 209 209 210 210 210 210 210 210 209 209 209 208 207 206 205 203 203 205 206 205 204 204 204 203 203 202 201 202 203 203 205 205 205 207 208 209 207 205 205 204
211 211 210 211 212 212 212 212 212 211 211 211 211 211 210 210 209 208 208 208 209 210 208 208 209 209 208 208 207 208 209 208 209 209 210 211 211 211 210 209 209 208
212 212 211 211 212 213 214 213 213 213 213 213 213 213 213 213 213 213 213 212 212 213 213 212 213 213 213 213 212 212 213 213 212 212 212 213 214 213 212 212 212 211
213 213 212 212 213 214 215 216 215 215 215 215 215 215 216 216 216 217 217 216 215 216 216 216 216 216 217 217 217 217 217 216 216 215 215 216 216 215 214 214 214 213
215 215 214 214 214 215 216 217 217 217 217 217 217 217 218 219 219 219 219 219 219 219 219 219 219 219 220 221 221 222 221 221 221 220 220 219 219 218 217 216 216 216
216 216 216 215 215 216 218 219 219 219 218 218 219 219 220 220 221 222 222 222 221 221 221 221 221 221 223 224 225 225 225 226 226 224 224 223 222 222 221 220 220 220
217 217 217 217 217 218 219 220 220 220 220 220 221 221 222 222 223 223 224 224 224 224 224 224 224 223 224 226 226 228 229 230 230 229 228 227 227 226 225 225 225 225
219 219 219 219 219 220 220 221 221 221 222 222 223 223 224 224 225 225 226 226 227 227 227 227 227 226 225 226 227 229 230 232 233 232 231 231 231 231 230 230 229 229
221 221 221 221 221 221 222 221 222 222 222 223 224 225 225 226 227 226 227 228 229 230 230 230 230 229 228 228 228 230 231 233 234 235 235 235 235 235 235 234 234 234
223 223 223 223 222 223 223 223 223 223 223 224 226 227 227 228 228 229 229 229 231 232 233 233 232 232 231 230 230 231 232 234 235 236 238 238 238 238 238 238 238 238
225 225 225 225 224 224 224 224 225 225 225 226 227 228 229 229 230 231 231 232 233 233 234 235 234 233 233 232 232 233 234 235 236 237 238 240 241 242 242 242 242 241
226 226 227 227 226 226 226 226 226 227 227 228 228 229 230 231 232 232 233 234 235 235 235 236 236 235 235 234 234 235 236 237 237 237 239 241 242 243 244 245 246 246
226 227 227 228 228 228 228 227 228 228 229 229 230 230 232 233 233 234 234 235 236 237 237 237 238 237 236 236 236 236 237 238 239 239 240 241 242 244 245 246 247 248
228 228 228 228 229 230 230 230 230 230 230 231 231 232 233 233 234 235 236 236 237 237 238 239 239 239 238 238 238 239 239 240 241 241 242 242 243 244 245 247 248 249
230 230 230 230 230 230 231 232 232 232 232 232 233 233 234 234 235 236 237 238 238 238 239 240 241 241 239 239 240 240 241 242 243 244 244 245 245 246 246 247 248 249
232 231 231 231 231 231 232 233 234 234 234 235 235 235 235 236 236 237 238 239 239 240 240 241 242 242 241 241 242 242 242 243 244 245 246 247 247 248 248 248 248 249
233 232 232 232 232 232 232 233 234 235 236 236 237 237 237 237 237 237 238 239 240 241 241 242 243 243 242 242 243 243 244 244 245 246 247 248 248 249 249 249 249 249
233 233 234 234 233 233 233 234 234 235 236 237 238 239 239 239 239 239 239 239 240 241 242 243 244 244 243 243 243 244 244 245 246 246 247 248 248 249 249 250 250 250
234 234 235 235 234 234 235 235 236 236 237 238 239 239 239 240 240 240 240 240 240 241 242 243 244 244 243 243 244 244 245 246 247 247 247 247 248 248 249 249 250 250
236 236 235 235 235 235 236 236 237 238 238 239 239 240 240 240 241 241 242 241 241 241 242 243 244 243 243 243 244 244 245 246 247 247 247 247 247 248 248 249 249 249
238 238 237 236 235 235 236 237 238 239 239 239 240 241 241 240 240 241 242 243 243 243 242 243 244 243 242 242 243 243 244 246 246 246 247 247 247 248 248 248 249 249
239 238 238 238 237 236 237 237 238 238 239 239 240 241 241 241 241 241 242 243 244 244 244 244 244 244 242 242 242 242 243 245 246 246 247 247 248 248 248 248 249 249
240 239 238 238 239 238 237 237 237 237 237 238 238 239 240 241 241 241 242 242 243 244 245 244 245 245 243 242 242 242 242 244 245 246 247 247 248 249 249 249 250 250